This is the latest recevied weather packets stored in our database for station/object ALTO-WX. If no packets are shown the sender has not sent any weather packets the latest 10 day(s).
| Time | Temp. | Humidity | Pressure | Rain* | Wind** | Luminosity | Snow |
|---|---|---|---|---|---|---|---|
| 1777698933 | 0.56° C | 73% | 987.3 hPa | 0 mm | - | - | - |
| 1777698063 | 1.11° C | 73% | 987.3 hPa | 0 mm | - | - | - |
| 1777697135 | 1.11° C | 70% | 986.8 hPa | 0 mm | - | - | - |
| 1777696251 | 1.11° C | 73% | 987 hPa | 0 mm | - | - | - |
| 1777695333 | 1.11° C | 73% | 987 hPa | 0 mm | - | - | - |
| 1777694462 | 1.11° C | 73% | 987 hPa | 0 mm | - | - | - |
| 1777693533 | 1.11° C | 61% | 986.6 hPa | 0 mm | - | - | - |
| 1777692653 | 1.67° C | 64% | 986 hPa | 0 mm | - | - | - |
| 1777691733 | 1.67° C | 64% | 986 hPa | 0 mm | - | - | - |
| 1777690861 | 1.67° C | 64% | 986 hPa | 0 mm | - | - | - |
| 1777689933 | 2.22° C | 59% | 985.5 hPa | 0 mm | - | - | - |
| 1777689051 | 2.78° C | 64% | 986.5 hPa | 0 mm | - | - | - |
| 1777688133 | 2.78° C | 64% | 986.5 hPa | 0 mm | - | - | - |
| 1777687258 | 2.78° C | 64% | 986.5 hPa | 0 mm | - | - | - |
| 1777686333 | 2.78° C | 63% | 986.4 hPa | 0 mm | - | - | - |
| 1777685449 | 3.33° C | 63% | 986.4 hPa | 0 mm | - | - | - |
| 1777684532 | 3.89° C | 63% | 986.5 hPa | 0 mm | - | - | - |
| 1777683654 | 3.89° C | 63% | 986.5 hPa | 0 mm | - | - | - |
| 1777682732 | 4.44° C | 55% | 986.8 hPa | 0 mm | - | - | - |
| 1777681850 | 4.44° C | 57% | 987.4 hPa | 0 mm | - | - | - |
| 1777680933 | 5° C | 57% | 987.4 hPa | 0 mm | - | - | - |
| 1777680066 | 5° C | 57% | 987.4 hPa | 0 mm | - | - | - |
| 1777679134 | 5° C | 53% | 985.9 hPa | 0 mm | - | - | - |
| 1777678247 | 5.56° C | 51% | 986.8 hPa | 0 mm | - | - | - |
| 1777677333 | 5.56° C | 51% | 986.8 hPa | 0 mm | - | - | - |
* Rain latest hour (hover to see other rain measurements)
** Current wind speed in m/s (hover to see current wind gust speed)